Time,TemperatureF,DewpointF,PressureIn,WindDirection,WindDirectionDegrees,WindSpeedMPH,WindSpeedGustMPH,Humidity,HourlyPrecipIn,Conditions,Clouds,dailyrainin,SoftwareType,DateUTC
2013-02-20 00:00:00,15.8,11.0,30.07,WSW,249,5.0,18.0,81,0.00,,---,0.07,VWS V14.00,2013-02-20 05:00:00,
2013-02-20 00:03:00,15.8,11.0,30.07,WSW,250,13.0,13.0,81,0.00,,---,0.00,VWS V14.00,2013-02-20 05:03:00,
2013-02-20 00:08:00,15.8,10.7,30.07,WSW,250,6.0,15.0,80,0.00,,---,0.00,VWS V14.00,2013-02-20 05:08:00,
2013-02-20 00:13:00,15.8,11.0,30.07,WSW,250,4.0,15.0,81,0.00,,---,0.00,VWS V14.00,2013-02-20 05:13:00,
2013-02-20 00:18:00,15.8,11.0,30.07,WSW,250,5.0,17.0,81,0.00,,---,0.00,VWS V14.00,2013-02-20 05:18:00,
2013-02-20 00:23:00,15.8,11.0,30.07,WSW,250,8.0,20.0,81,0.00,,---,0.00,VWS V14.00,2013-02-20 05:23:00,
2013-02-20 00:28:00,15.9,11.1,30.07,WSW,250,11.0,20.0,81,0.00,,---,0.00,VWS V14.00,2013-02-20 05:28:00,
2013-02-20 00:33:00,15.9,11.1,30.07,WSW,250,6.0,18.0,81,0.00,,---,0.00,VWS V14.00,2013-02-20 05:33:00,
2013-02-20 00:38:00,15.9,11.1,30.07,WSW,249,8.0,18.0,81,0.00,,---,0.00,VWS V14.00,2013-02-20 05:38:00,
2013-02-20 00:43:00,15.9,11.4,30.08,WSW,250,8.0,21.0,82,0.00,,---,0.00,VWS V14.00,2013-02-20 05:43:00,
2013-02-20 00:48:00,15.9,11.1,30.08,WSW,250,4.0,21.0,81,0.00,,---,0.00,VWS V14.00,2013-02-20 05:48:00,
2013-02-20 00:53:00,16.0,11.2,30.08,WSW,250,5.0,21.0,81,0.00,,---,0.00,VWS V14.00,2013-02-20 05:53:00,
2013-02-20 00:58:00,16.0,11.2,30.08,WSW,249,2.0,21.0,81,0.00,,---,0.00,VWS V14.00,2013-02-20 05:58:00,
2013-02-20 01:03:00,16.0,11.2,30.08,WSW,250,11.0,17.0,81,0.00,,---,0.00,VWS V14.00,2013-02-20 06:03:00,
2013-02-20 01:08:00,16.0,11.5,30.08,WSW,250,11.0,17.0,82,0.00,,---,0.00,VWS V14.00,2013-02-20 06:08:00,
2013-02-20 01:13:00,15.9,11.1,30.08,WSW,249,5.0,17.0,81,0.00,,---,0.00,VWS V14.00,2013-02-20 06:13:00,
2013-02-20 01:18:00,15.9,11.1,30.09,WSW,250,6.0,17.0,81,0.00,,---,0.00,VWS V14.00,2013-02-20 06:18:00,
2013-02-20 01:23:00,15.9,11.4,30.09,WSW,250,4.0,17.0,82,0.00,,---,0.00,VWS V14.00,2013-02-20 06:23:00,
2013-02-20 01:29:00,15.9,11.1,30.09,WSW,250,3.0,17.0,81,0.00,,---,0.00,VWS V14.00,2013-02-20 06:29:00,
2013-02-20 01:34:00,15.9,11.1,30.09,WSW,249,6.0,13.0,81,0.00,,---,0.00,VWS V14.00,2013-02-20 06:34:00,
2013-02-20 01:39:00,15.9,11.4,30.10,WSW,250,6.0,14.0,82,0.00,,---,0.00,VWS V14.00,2013-02-20 06:39:00,
2013-02-20 01:44:00,15.9,11.4,30.10,WSW,250,11.0,14.0,82,0.00,,---,0.00,VWS V14.00,2013-02-20 06:44:00,
2013-02-20 01:49:00,15.9,11.4,30.10,WSW,249,4.0,15.0,82,0.00,,---,0.00,VWS V14.00,2013-02-20 06:49:00,
2013-02-20 01:54:00,15.9,11.4,30.10,WSW,249,8.0,15.0,82,0.00,,---,0.00,VWS V14.00,2013-02-20 06:54:00,
2013-02-20 01:59:00,15.9,11.4,30.10,WSW,250,7.0,17.0,82,0.00,,---,0.00,VWS V14.00,2013-02-20 06:59:00,
2013-02-20 02:04:00,15.9,11.4,30.11,WSW,250,11.0,13.0,82,0.00,,---,0.00,VWS V14.00,2013-02-20 07:04:00,
2013-02-20 02:09:00,15.9,11.4,30.11,WSW,250,3.0,17.0,82,0.00,,---,0.00,VWS V14.00,2013-02-20 07:09:00,
2013-02-20 02:14:00,15.9,11.4,30.11,WSW,250,4.0,17.0,82,0.00,,---,0.00,VWS V14.00,2013-02-20 07:14:00,
2013-02-20 02:19:00,16.0,11.5,30.11,WSW,250,4.0,17.0,82,0.00,,---,0.00,VWS V14.00,2013-02-20 07:19:00,
2013-02-20 02:24:00,16.0,11.5,30.11,WSW,250,5.0,17.0,82,0.00,,---,0.00,VWS V14.00,2013-02-20 07:24:00,
2013-02-20 02:29:00,16.1,11.6,30.11,WSW,249,8.0,17.0,82,0.00,,---,0.00,VWS V14.00,2013-02-20 07:29:00,
2013-02-20 02:34:00,16.1,11.6,30.11,WSW,250,11.0,14.0,82,0.00,,---,0.00,VWS V14.00,2013-02-20 07:34:00,
2013-02-20 02:39:00,16.1,11.6,30.11,WSW,250,4.0,20.0,82,0.00,,---,0.00,VWS V14.00,2013-02-20 07:39:00,
2013-02-20 02:44:00,16.1,11.6,30.11,WSW,249,5.0,20.0,82,0.00,,---,0.00,VWS V14.00,2013-02-20 07:44:00,
2013-02-20 02:49:00,16.0,11.5,30.11,WSW,250,3.0,20.0,82,0.00,,---,0.00,VWS V14.00,2013-02-20 07:49:00,
2013-02-20 02:55:00,16.0,11.5,30.11,WSW,249,6.0,20.0,82,0.00,,---,0.00,VWS V14.00,2013-02-20 07:55:00,
2013-02-20 03:00:00,16.0,11.5,30.11,WSW,250,10.0,20.0,82,0.00,,---,0.00,VWS V14.00,2013-02-20 08:00:00,
2013-02-20 03:05:00,16.0,11.5,30.11,WSW,250,4.0,17.0,82,0.00,,---,0.00,VWS V14.00,2013-02-20 08:05:00,
2013-02-20 03:10:00,15.9,11.4,30.12,WSW,249,12.0,17.0,82,0.00,,---,0.00,VWS V14.00,2013-02-20 08:10:00,
2013-02-20 03:15:00,15.8,11.3,30.12,WSW,250,7.0,17.0,82,0.00,,---,0.00,VWS V14.00,2013-02-20 08:15:00,
2013-02-20 03:20:00,15.7,11.5,30.12,WSW,250,6.0,17.0,83,0.00,,---,0.00,VWS V14.00,2013-02-20 08:20:00,
2013-02-20 03:25:00,15.6,11.4,30.12,WSW,250,11.0,17.0,83,0.00,,---,0.00,VWS V14.00,2013-02-20 08:25:00,
2013-02-20 03:30:00,15.6,11.4,30.12,WSW,250,8.0,10.0,83,0.00,,---,0.00,VWS V14.00,2013-02-20 08:30:00,
2013-02-20 03:35:00,15.6,11.4,30.12,WSW,250,8.0,12.0,83,0.00,,---,0.00,VWS V14.00,2013-02-20 08:35:00,
2013-02-20 03:40:00,15.7,11.5,30.13,WSW,249,5.0,13.0,83,0.00,,---,0.00,VWS V14.00,2013-02-20 08:40:00,
2013-02-20 03:45:00,15.7,11.5,30.13,WSW,250,11.0,13.0,83,0.00,,---,0.00,VWS V14.00,2013-02-20 08:45:00,
2013-02-20 03:50:00,15.7,11.5,30.13,WSW,250,6.0,14.0,83,0.00,,---,0.00,VWS V14.00,2013-02-20 08:50:00,
2013-02-20 03:56:00,15.7,11.5,30.13,WSW,250,6.0,14.0,83,0.00,,---,0.00,VWS V14.00,2013-02-20 08:56:00,
2013-02-20 04:01:00,15.7,11.5,30.13,WSW,250,4.0,8.0,83,0.00,,---,0.00,VWS V14.00,2013-02-20 09:01:00,
2013-02-20 04:06:00,15.7,11.5,30.13,WSW,249,7.0,14.0,83,0.00,,---,0.00,VWS V14.00,2013-02-20 09:06:00,
2013-02-20 04:11:00,15.7,11.5,30.13,WSW,250,7.0,14.0,83,0.00,,---,0.00,VWS V14.00,2013-02-20 09:11:00,
2013-02-20 04:16:00,15.7,11.5,30.13,WSW,250,11.0,17.0,83,0.00,,---,0.00,VWS V14.00,2013-02-20 09:16:00,
2013-02-20 04:21:00,15.7,11.5,30.13,WSW,250,8.0,17.0,83,0.00,,---,0.00,VWS V14.00,2013-02-20 09:21:00,
2013-02-20 04:26:00,15.7,11.5,30.13,WSW,250,2.0,17.0,83,0.00,,---,0.00,VWS V14.00,2013-02-20 09:26:00,
2013-02-20 04:31:00,15.8,11.6,30.13,WSW,250,3.0,7.0,83,0.00,,---,0.00,VWS V14.00,2013-02-20 09:31:00,
2013-02-20 04:36:00,15.9,11.7,30.14,WSW,250,4.0,11.0,83,0.00,,---,0.00,VWS V14.00,2013-02-20 09:36:00,
2013-02-20 04:41:00,16.1,11.6,30.14,WSW,249,6.0,11.0,82,0.00,,---,0.00,VWS V14.00,2013-02-20 09:41:00,
2013-02-20 04:46:00,16.2,11.4,30.14,WSW,250,3.0,11.0,81,0.00,,---,0.00,VWS V14.00,2013-02-20 09:46:00,
2013-02-20 04:51:00,16.2,11.4,30.14,WSW,250,6.0,12.0,81,0.00,,---,0.00,VWS V14.00,2013-02-20 09:51:00,
2013-02-20 04:56:00,16.2,11.4,30.14,WSW,249,8.0,14.0,81,0.00,,---,0.00,VWS V14.00,2013-02-20 09:56:00,
2013-02-20 05:01:00,16.2,11.1,30.15,WSW,250,5.0,14.0,80,0.00,,---,0.00,VWS V14.00,2013-02-20 10:01:00,
2013-02-20 05:06:00,16.1,11.0,30.15,WSW,250,5.0,14.0,80,0.00,,---,0.00,VWS V14.00,2013-02-20 10:06:00,
2013-02-20 05:11:00,16.2,11.1,30.15,WSW,250,6.0,14.0,80,0.00,,---,0.00,VWS V14.00,2013-02-20 10:11:00,
2013-02-20 05:16:00,16.1,11.0,30.16,WSW,249,5.0,14.0,80,0.00,,---,0.00,VWS V14.00,2013-02-20 10:16:00,
2013-02-20 05:21:00,16.1,11.3,30.16,WSW,250,4.0,14.0,81,0.00,,---,0.00,VWS V14.00,2013-02-20 10:21:00,
2013-02-20 05:26:00,15.9,11.1,30.16,WSW,250,10.0,15.0,81,0.00,,---,0.00,VWS V14.00,2013-02-20 10:26:00,
2013-02-20 05:31:00,15.8,11.0,30.16,WSW,249,7.0,10.0,81,0.00,,---,0.00,VWS V14.00,2013-02-20 10:31:00,
2013-02-20 05:36:00,15.6,10.8,30.16,WSW,249,3.0,17.0,81,0.00,,---,0.00,VWS V14.00,2013-02-20 10:36:00,
2013-02-20 05:41:00,15.5,10.7,30.17,WSW,249,6.0,17.0,81,0.00,,---,0.00,VWS V14.00,2013-02-20 10:41:00,
2013-02-20 05:46:00,15.5,10.7,30.17,WSW,250,5.0,17.0,81,0.00,,---,0.00,VWS V14.00,2013-02-20 10:46:00,
2013-02-20 05:51:00,15.5,10.7,30.17,WSW,249,3.0,17.0,81,0.00,,---,0.00,VWS V14.00,2013-02-20 10:51:00,
2013-02-20 05:56:00,15.4,10.9,30.17,WSW,250,7.0,17.0,82,0.00,,---,0.00,VWS V14.00,2013-02-20 10:56:00,
2013-02-20 06:02:00,15.3,10.8,30.18,WSW,250,5.0,8.0,82,0.00,,---,0.00,VWS V14.00,2013-02-20 11:02:00,
2013-02-20 06:07:00,15.3,10.8,30.18,WSW,250,8.0,11.0,82,0.00,,---,0.00,VWS V14.00,2013-02-20 11:07:00,
2013-02-20 06:12:00,15.3,10.8,30.18,WSW,250,6.0,13.0,82,0.00,,---,0.00,VWS V14.00,2013-02-20 11:12:00,
2013-02-20 06:17:00,15.3,10.8,30.18,WSW,250,4.0,17.0,82,0.00,,---,0.00,VWS V14.00,2013-02-20 11:17:00,
2013-02-20 06:22:00,15.2,11.0,30.18,WSW,250,6.0,18.0,83,0.00,,---,0.00,VWS V14.00,2013-02-20 11:22:00,
2013-02-20 06:27:00,15.1,10.9,30.18,WSW,249,10.0,18.0,83,0.00,,---,0.00,VWS V14.00,2013-02-20 11:27:00,
2013-02-20 06:32:00,15.0,10.8,30.18,WSW,249,12.0,14.0,83,0.00,,---,0.00,VWS V14.00,2013-02-20 11:32:00,
2013-02-20 06:37:00,14.9,10.7,30.19,WSW,250,11.0,19.0,83,0.00,,---,0.00,VWS V14.00,2013-02-20 11:37:00,
2013-02-20 06:42:00,14.8,10.9,30.18,WSW,250,5.0,19.0,84,0.00,,---,0.00,VWS V14.00,2013-02-20 11:42:00,
2013-02-20 06:47:00,14.8,10.9,30.19,WSW,250,13.0,19.0,84,0.00,,---,0.00,VWS V14.00,2013-02-20 11:47:00,
2013-02-20 06:52:00,14.8,10.6,30.19,WSW,250,5.0,19.0,83,0.00,,---,0.00,VWS V14.00,2013-02-20 11:52:00,
2013-02-20 06:57:00,14.7,10.5,30.19,WSW,250,3.0,19.0,83,0.00,,---,0.00,VWS V14.00,2013-02-20 11:57:00,
2013-02-20 07:02:00,14.6,10.4,30.19,WSW,249,5.0,8.0,83,0.00,,---,0.00,VWS V14.00,2013-02-20 12:02:00,
2013-02-20 07:07:00,14.6,10.4,30.19,WSW,250,4.0,10.0,83,0.00,,---,0.00,VWS V14.00,2013-02-20 12:07:00,
2013-02-20 07:12:00,14.6,10.4,30.19,WSW,250,7.0,13.0,83,0.00,,---,0.00,VWS V14.00,2013-02-20 12:12:00,
2013-02-20 07:17:00,14.5,10.3,30.19,WSW,250,4.0,13.0,83,0.00,,---,0.00,VWS V14.00,2013-02-20 12:17:00,
2013-02-20 07:22:00,14.5,10.3,30.19,WSW,250,8.0,13.0,83,0.00,,---,0.00,VWS V14.00,2013-02-20 12:22:00,
2013-02-20 07:27:00,14.5,10.3,30.19,WSW,249,3.0,13.0,83,0.00,,---,0.00,VWS V14.00,2013-02-20 12:27:00,
2013-02-20 07:32:00,14.5,10.6,30.19,WSW,250,2.0,11.0,84,0.00,,---,0.00,VWS V14.00,2013-02-20 12:32:00,
2013-02-20 07:37:00,14.5,10.6,30.20,WSW,250,4.0,12.0,84,0.00,,---,0.00,VWS V14.00,2013-02-20 12:37:00,
2013-02-20 07:42:00,14.5,10.6,30.20,WSW,250,5.0,12.0,84,0.00,,---,0.00,VWS V14.00,2013-02-20 12:42:00,
2013-02-20 07:47:00,14.6,10.7,30.20,WSW,250,8.0,12.0,84,0.00,,---,0.00,VWS V14.00,2013-02-20 12:47:00,
2013-02-20 07:52:00,14.6,10.7,30.20,WSW,250,5.0,12.0,84,0.00,,---,0.00,VWS V14.00,2013-02-20 12:52:00,
2013-02-20 07:58:00,14.6,10.7,30.20,WSW,250,8.0,14.0,84,0.00,,---,0.00,VWS V14.00,2013-02-20 12:58:00,
2013-02-20 08:03:00,14.6,10.7,30.20,WSW,250,6.0,10.0,84,0.00,,---,0.00,VWS V14.00,2013-02-20 13:03:00,
2013-02-20 08:08:00,14.8,10.9,30.21,WSW,249,5.0,10.0,84,0.00,,---,0.00,VWS V14.00,2013-02-20 13:08:00,
2013-02-20 08:13:00,14.9,10.9,30.20,WSW,249,7.0,10.0,84,0.00,,---,0.00,VWS V14.00,2013-02-20 13:13:00,
2013-02-20 08:18:00,14.9,10.9,30.21,WSW,250,7.0,10.0,84,0.00,,---,0.00,VWS V14.00,2013-02-20 13:18:00,
2013-02-20 08:23:00,14.8,10.9,30.21,WSW,250,7.0,18.0,84,0.00,,---,0.00,VWS V14.00,2013-02-20 13:23:00,
2013-02-20 08:28:00,14.8,10.9,30.21,WSW,250,4.0,18.0,84,0.00,,---,0.00,VWS V14.00,2013-02-20 13:28:00,
2013-02-20 08:33:00,14.9,10.9,30.21,WSW,250,6.0,11.0,84,0.00,,---,0.00,VWS V14.00,2013-02-20 13:33:00,
2013-02-20 08:38:00,15.0,11.1,30.21,WSW,249,11.0,13.0,84,0.00,,---,0.00,VWS V14.00,2013-02-20 13:38:00,
2013-02-20 08:43:00,15.0,11.3,30.21,WSW,250,2.0,13.0,85,0.00,,---,0.00,VWS V14.00,2013-02-20 13:43:00,
2013-02-20 08:48:00,15.1,11.1,30.22,WSW,250,8.0,18.0,84,0.00,,---,0.00,VWS V14.00,2013-02-20 13:48:00,
2013-02-20 08:53:00,15.2,11.2,30.22,WSW,250,3.0,18.0,84,0.00,,---,0.00,VWS V14.00,2013-02-20 13:53:00,
2013-02-20 08:58:00,15.3,11.6,30.22,WSW,250,8.0,18.0,85,0.00,,---,0.00,VWS V14.00,2013-02-20 13:58:00,
2013-02-20 09:03:00,15.3,11.3,30.22,WSW,250,6.0,13.0,84,0.00,,---,0.00,VWS V14.00,2013-02-20 14:03:00,
2013-02-20 09:08:00,15.5,11.5,30.22,WSW,250,4.0,14.0,84,0.00,,---,0.00,VWS V14.00,2013-02-20 14:08:00,
2013-02-20 09:13:00,15.6,11.6,30.22,WSW,250,4.0,14.0,84,0.00,,---,0.00,VWS V14.00,2013-02-20 14:13:00,
2013-02-20 09:18:00,15.7,11.7,30.22,WSW,250,3.0,15.0,84,0.00,,---,0.00,VWS V14.00,2013-02-20 14:18:00,
2013-02-20 09:23:00,15.9,11.9,30.22,WSW,249,5.0,15.0,84,0.00,,---,0.00,VWS V14.00,2013-02-20 14:23:00,
2013-02-20 09:28:00,16.0,12.0,30.22,WSW,250,2.0,15.0,84,0.00,,---,0.00,VWS V14.00,2013-02-20 14:28:00,
2013-02-20 09:33:00,16.3,12.3,30.22,WSW,250,3.0,13.0,84,0.00,,---,0.00,VWS V14.00,2013-02-20 14:33:00,
2013-02-20 09:38:00,16.6,12.6,30.22,WSW,250,8.0,13.0,84,0.00,,---,0.00,VWS V14.00,2013-02-20 14:38:00,
2013-02-20 09:44:00,16.7,12.7,30.22,WSW,250,3.0,13.0,84,0.00,,---,0.00,VWS V14.00,2013-02-20 14:44:00,
2013-02-20 09:49:00,17.0,13.0,30.22,WSW,250,8.0,13.0,84,0.00,,---,0.00,VWS V14.00,2013-02-20 14:49:00,
2013-02-20 09:54:00,17.0,12.7,30.22,WSW,250,7.0,15.0,83,0.00,,---,0.00,VWS V14.00,2013-02-20 14:54:00,
2013-02-20 09:59:00,17.0,12.7,30.22,WSW,250,6.0,17.0,83,0.00,,---,0.00,VWS V14.00,2013-02-20 14:59:00,
2013-02-20 10:04:00,17.2,12.9,30.22,WSW,249,14.0,14.0,83,0.00,,---,0.00,VWS V14.00,2013-02-20 15:04:00,
2013-02-20 10:09:00,17.3,13.0,30.22,WSW,249,6.0,14.0,83,0.00,,---,0.00,VWS V14.00,2013-02-20 15:09:00,
2013-02-20 10:14:00,17.5,13.2,30.22,WSW,250,3.0,14.0,83,0.00,,---,0.00,VWS V14.00,2013-02-20 15:14:00,
2013-02-20 10:19:00,17.6,13.3,30.23,WSW,249,8.0,14.0,83,0.00,,---,0.00,VWS V14.00,2013-02-20 15:19:00,
2013-02-20 10:24:00,17.6,13.3,30.23,WSW,250,6.0,15.0,83,0.00,,---,0.00,VWS V14.00,2013-02-20 15:24:00,
2013-02-20 10:29:00,17.6,13.3,30.23,WSW,250,4.0,19.0,83,0.00,,---,0.00,VWS V14.00,2013-02-20 15:29:00,
2013-02-20 10:34:00,18.1,13.8,30.23,WSW,250,4.0,8.0,83,0.00,,---,0.00,VWS V14.00,2013-02-20 15:34:00,
2013-02-20 10:39:00,18.2,13.6,30.24,WSW,250,4.0,19.0,82,0.00,,---,0.00,VWS V14.00,2013-02-20 15:39:00,
2013-02-20 10:44:00,18.3,13.7,30.23,WSW,250,10.0,19.0,82,0.00,,---,0.00,VWS V14.00,2013-02-20 15:44:00,
2013-02-20 10:49:00,18.4,13.8,30.23,WSW,249,5.0,19.0,82,0.00,,---,0.00,VWS V14.00,2013-02-20 15:49:00,
2013-02-20 10:54:00,18.5,13.9,30.24,WSW,250,7.0,19.0,82,0.00,,---,0.00,VWS V14.00,2013-02-20 15:54:00,
2013-02-20 10:59:00,18.6,14.0,30.24,WSW,250,6.0,19.0,82,0.00,,---,0.00,VWS V14.00,2013-02-20 15:59:00,
2013-02-20 11:04:00,18.6,14.0,30.24,WSW,250,2.0,10.0,82,0.00,,---,0.00,VWS V14.00,2013-02-20 16:04:00,
2013-02-20 11:09:00,18.8,14.2,30.24,WSW,249,3.0,14.0,82,0.00,,---,0.00,VWS V14.00,2013-02-20 16:09:00,
2013-02-20 11:14:00,18.7,13.9,30.24,WSW,250,12.0,14.0,81,0.00,,---,0.00,VWS V14.00,2013-02-20 16:14:00,
2013-02-20 11:19:00,18.5,13.6,30.25,WSW,249,4.0,18.0,81,0.00,,---,0.00,VWS V14.00,2013-02-20 16:19:00,
2013-02-20 11:24:00,18.7,14.4,30.25,WSW,250,11.0,18.0,83,0.00,,---,0.00,VWS V14.00,2013-02-20 16:24:00,
2013-02-20 11:29:00,18.9,14.6,30.25,WSW,250,3.0,18.0,83,0.00,,---,0.00,VWS V14.00,2013-02-20 16:29:00,
2013-02-20 11:34:00,18.8,14.2,30.25,WSW,249,4.0,11.0,82,0.00,,---,0.00,VWS V14.00,2013-02-20 16:34:00,
2013-02-20 11:39:00,18.9,14.6,30.25,WSW,250,4.0,15.0,83,0.00,,---,0.00,VWS V14.00,2013-02-20 16:39:00,
2013-02-20 11:45:00,18.9,14.3,30.25,WSW,250,3.0,15.0,82,0.00,,---,0.00,VWS V14.00,2013-02-20 16:45:00,
2013-02-20 11:50:00,18.8,13.9,30.25,WSW,250,3.0,15.0,81,0.00,,---,0.00,VWS V14.00,2013-02-20 16:50:00,
2013-02-20 11:55:00,18.9,14.3,30.25,WSW,250,14.0,15.0,82,0.00,,---,0.00,VWS V14.00,2013-02-20 16:55:00,
2013-02-20 12:00:00,19.0,14.4,30.25,WSW,250,4.0,15.0,82,0.00,,---,0.00,VWS V14.00,2013-02-20 17:00:00,
2013-02-20 12:05:00,19.2,14.6,30.25,WSW,249,6.0,11.0,82,0.00,,---,0.00,VWS V14.00,2013-02-20 17:05:00,
2013-02-20 12:10:00,19.5,14.9,30.26,WSW,250,3.0,11.0,82,0.00,,---,0.00,VWS V14.00,2013-02-20 17:10:00,
2013-02-20 12:15:00,19.9,15.0,30.26,WSW,250,6.0,15.0,81,0.00,,---,0.00,VWS V14.00,2013-02-20 17:15:00,
2013-02-20 12:20:00,20.0,15.1,30.26,WSW,249,4.0,15.0,81,0.00,,---,0.00,VWS V14.00,2013-02-20 17:20:00,
2013-02-20 12:25:00,20.3,15.1,30.26,WSW,250,7.0,15.0,80,0.00,,---,0.00,VWS V14.00,2013-02-20 17:25:00,
2013-02-20 12:30:00,20.4,15.2,30.26,WSW,250,7.0,7.0,80,0.00,,---,0.00,VWS V14.00,2013-02-20 17:30:00,
2013-02-20 12:35:00,20.6,15.1,30.25,WSW,250,5.0,13.0,79,0.00,,---,0.00,VWS V14.00,2013-02-20 17:35:00,
2013-02-20 12:40:00,20.6,15.1,30.25,WSW,250,5.0,13.0,79,0.00,,---,0.00,VWS V14.00,2013-02-20 17:40:00,
2013-02-20 12:45:00,20.8,15.3,30.25,WSW,250,8.0,14.0,79,0.00,,---,0.00,VWS V14.00,2013-02-20 17:45:00,
2013-02-20 12:50:00,21.1,15.6,30.25,WSW,250,5.0,14.0,79,0.00,,---,0.00,VWS V14.00,2013-02-20 17:50:00,
2013-02-20 12:55:00,21.3,15.8,30.25,WSW,250,5.0,15.0,79,0.00,,---,0.00,VWS V14.00,2013-02-20 17:55:00,
2013-02-20 13:00:00,21.5,16.0,30.25,WSW,250,2.0,7.0,79,0.00,,---,0.00,VWS V14.00,2013-02-20 18:00:00,
2013-02-20 13:05:00,21.6,15.8,30.25,WSW,250,6.0,11.0,78,0.00,,---,0.00,VWS V14.00,2013-02-20 18:05:00,
2013-02-20 13:10:00,21.5,15.7,30.25,WSW,250,6.0,12.0,78,0.00,,---,0.00,VWS V14.00,2013-02-20 18:10:00,
2013-02-20 13:15:00,21.5,16.0,30.25,WSW,250,8.0,13.0,79,0.00,,---,0.00,VWS V14.00,2013-02-20 18:15:00,
2013-02-20 13:20:00,21.6,16.1,30.25,WSW,250,11.0,13.0,79,0.00,,---,0.00,VWS V14.00,2013-02-20 18:20:00,
2013-02-20 13:25:00,21.6,16.4,30.25,WSW,250,5.0,13.0,80,0.00,,---,0.00,VWS V14.00,2013-02-20 18:25:00,
2013-02-20 13:30:00,21.4,16.2,30.25,WSW,250,4.0,11.0,80,0.00,,---,0.00,VWS V14.00,2013-02-20 18:30:00,
2013-02-20 13:36:00,21.5,16.6,30.25,WSW,250,4.0,11.0,81,0.00,,---,0.00,VWS V14.00,2013-02-20 18:36:00,
2013-02-20 13:41:00,21.7,16.8,30.25,WSW,249,4.0,11.0,81,0.00,,---,0.00,VWS V14.00,2013-02-20 18:41:00,
2013-02-20 13:46:00,21.5,16.3,30.25,WSW,250,8.0,24.0,80,0.00,,---,0.00,VWS V14.00,2013-02-20 18:46:00,
2013-02-20 13:51:00,21.5,16.9,30.24,WSW,250,6.0,24.0,82,0.00,,---,0.00,VWS V14.00,2013-02-20 18:51:00,
2013-02-20 13:56:00,21.5,16.6,30.25,WSW,250,5.0,24.0,81,0.00,,---,0.00,VWS V14.00,2013-02-20 18:56:00,
2013-02-20 14:01:00,21.6,17.0,30.25,WSW,249,7.0,7.0,82,0.00,,---,0.00,VWS V14.00,2013-02-20 19:01:00,
2013-02-20 14:06:00,21.8,16.3,30.24,WSW,250,12.0,13.0,79,0.00,,---,0.00,VWS V14.00,2013-02-20 19:06:00,
2013-02-20 14:11:00,21.9,16.4,30.24,WSW,250,6.0,13.0,79,0.00,,---,0.00,VWS V14.00,2013-02-20 19:11:00,
2013-02-20 14:16:00,21.8,16.6,30.24,WSW,249,7.0,14.0,80,0.00,,---,0.00,VWS V14.00,2013-02-20 19:16:00,
2013-02-20 14:21:00,21.7,16.8,30.25,WSW,249,6.0,14.0,81,0.00,,---,0.00,VWS V14.00,2013-02-20 19:21:00,
2013-02-20 14:26:00,21.7,16.8,30.25,WSW,250,5.0,17.0,81,0.00,,---,0.00,VWS V14.00,2013-02-20 19:26:00,
2013-02-20 14:31:00,21.7,16.8,30.26,WSW,249,7.0,15.0,81,0.00,,---,0.00,VWS V14.00,2013-02-20 19:31:00,
2013-02-20 14:36:00,21.7,17.1,30.26,WSW,250,10.0,17.0,82,0.00,,---,0.00,VWS V14.00,2013-02-20 19:36:00,
2013-02-20 14:41:00,21.4,17.0,30.27,WSW,249,6.0,17.0,83,0.00,,---,0.00,VWS V14.00,2013-02-20 19:41:00,
2013-02-20 14:46:00,21.1,16.8,30.26,WSW,250,6.0,17.0,83,0.00,,---,0.00,VWS V14.00,2013-02-20 19:46:00,
2013-02-20 14:51:00,21.0,16.7,30.27,WSW,250,4.0,17.0,83,0.00,,---,0.00,VWS V14.00,2013-02-20 19:51:00,
2013-02-20 14:56:00,20.8,16.7,30.27,WSW,249,5.0,17.0,84,0.00,,---,0.00,VWS V14.00,2013-02-20 19:56:00,
2013-02-20 15:01:00,20.8,16.7,30.27,WSW,250,7.0,15.0,84,0.00,,---,0.00,VWS V14.00,2013-02-20 20:01:00,
2013-02-20 15:06:00,20.8,16.7,30.27,WSW,250,3.0,15.0,84,0.00,,---,0.00,VWS V14.00,2013-02-20 20:06:00,
2013-02-20 15:11:00,20.8,16.7,30.28,WSW,249,12.0,17.0,84,0.00,,---,0.00,VWS V14.00,2013-02-20 20:11:00,
2013-02-20 15:16:00,20.8,16.5,30.29,WSW,250,5.0,17.0,83,0.00,,---,0.00,VWS V14.00,2013-02-20 20:16:00,
2013-02-20 15:21:00,20.7,16.4,30.29,WSW,250,11.0,19.0,83,0.00,,---,0.00,VWS V14.00,2013-02-20 20:21:00,
2013-02-20 15:27:00,20.7,16.4,30.29,WSW,250,5.0,19.0,83,0.00,,---,0.00,VWS V14.00,2013-02-20 20:27:00,
2013-02-20 15:32:00,20.7,16.4,30.29,WSW,250,2.0,12.0,83,0.00,,---,0.00,VWS V14.00,2013-02-20 20:32:00,
2013-02-20 15:37:00,20.9,16.6,30.30,WSW,249,4.0,15.0,83,0.00,,---,0.00,VWS V14.00,2013-02-20 20:37:00,
2013-02-20 15:42:00,21.0,16.7,30.29,WSW,250,7.0,15.0,83,0.00,,---,0.00,VWS V14.00,2013-02-20 20:42:00,
2013-02-20 15:47:00,21.0,16.7,30.29,WSW,250,5.0,15.0,83,0.00,,---,0.00,VWS V14.00,2013-02-20 20:47:00,
2013-02-20 15:52:00,21.1,16.8,30.29,WSW,250,4.0,15.0,83,0.00,,---,0.00,VWS V14.00,2013-02-20 20:52:00,
2013-02-20 15:57:00,21.0,16.4,30.29,WSW,249,3.0,15.0,82,0.00,,---,0.00,VWS V14.00,2013-02-20 20:57:00,
2013-02-20 16:02:00,21.2,16.9,30.29,WSW,250,3.0,8.0,83,0.00,,---,0.00,VWS V14.00,2013-02-20 21:02:00,
2013-02-20 16:07:00,21.4,16.8,30.29,WSW,250,5.0,15.0,82,0.00,,---,0.00,VWS V14.00,2013-02-20 21:07:00,
2013-02-20 16:12:00,21.3,16.7,30.29,WSW,250,6.0,15.0,82,0.00,,---,0.00,VWS V14.00,2013-02-20 21:12:00,
2013-02-20 16:17:00,21.3,17.0,30.29,WSW,250,3.0,15.0,83,0.00,,---,0.00,VWS V14.00,2013-02-20 21:17:00,
2013-02-20 16:22:00,21.5,17.1,30.29,WSW,249,2.0,15.0,83,0.00,,---,0.00,VWS V14.00,2013-02-20 21:22:00,
2013-02-20 16:27:00,21.7,17.3,30.29,WSW,250,4.0,15.0,83,0.00,,---,0.00,VWS V14.00,2013-02-20 21:27:00,
2013-02-20 16:32:00,21.7,17.1,30.29,WSW,249,4.0,10.0,82,0.00,,---,0.00,VWS V14.00,2013-02-20 21:32:00,
2013-02-20 16:37:00,21.7,17.1,30.29,WSW,250,2.0,10.0,82,0.00,,---,0.00,VWS V14.00,2013-02-20 21:37:00,
2013-02-20 16:42:00,21.9,17.5,30.29,WSW,250,3.0,10.0,83,0.00,,---,0.00,VWS V14.00,2013-02-20 21:42:00,
2013-02-20 16:47:00,21.9,17.5,30.29,WSW,250,5.0,10.0,83,0.00,,---,0.00,VWS V14.00,2013-02-20 21:47:00,
2013-02-20 16:52:00,21.9,17.5,30.29,WSW,250,4.0,10.0,83,0.00,,---,0.00,VWS V14.00,2013-02-20 21:52:00,
2013-02-20 16:57:00,21.9,17.5,30.28,WSW,250,5.0,10.0,83,0.00,,---,0.00,VWS V14.00,2013-02-20 21:57:00,
2013-02-20 17:03:00,21.9,17.5,30.29,WSW,250,2.0,7.0,83,0.00,,---,0.00,VWS V14.00,2013-02-20 22:03:00,
2013-02-20 17:08:00,22.0,17.9,30.29,WSW,249,5.0,7.0,84,0.00,,---,0.00,VWS V14.00,2013-02-20 22:08:00,
2013-02-20 17:13:00,22.0,17.6,30.29,WSW,250,2.0,10.0,83,0.00,,---,0.00,VWS V14.00,2013-02-20 22:13:00,
2013-02-20 17:18:00,21.9,17.5,30.29,WSW,250,7.0,10.0,83,0.00,,---,0.00,VWS V14.00,2013-02-20 22:18:00,
2013-02-20 17:23:00,21.9,17.8,30.29,WSW,250,5.0,10.0,84,0.00,,---,0.00,VWS V14.00,2013-02-20 22:23:00,
2013-02-20 17:28:00,22.0,17.9,30.29,WSW,249,3.0,10.0,84,0.00,,---,0.00,VWS V14.00,2013-02-20 22:28:00,
2013-02-20 17:33:00,22.0,17.9,30.29,WSW,250,3.0,6.0,84,0.00,,---,0.00,VWS V14.00,2013-02-20 22:33:00,
2013-02-20 17:38:00,21.9,17.8,30.28,WSW,250,3.0,8.0,84,0.00,,---,0.00,VWS V14.00,2013-02-20 22:38:00,
2013-02-20 17:43:00,21.9,17.8,30.28,WSW,250,4.0,8.0,84,0.00,,---,0.00,VWS V14.00,2013-02-20 22:43:00,
2013-02-20 17:49:00,21.9,17.8,30.29,WSW,250,4.0,8.0,84,0.00,,---,0.00,VWS V14.00,2013-02-20 22:49:00,
2013-02-20 17:54:00,21.9,17.5,30.29,WSW,250,3.0,8.0,83,0.00,,---,0.00,VWS V14.00,2013-02-20 22:54:00,
2013-02-20 17:59:00,21.9,17.5,30.30,WSW,250,3.0,8.0,83,0.00,,---,0.00,VWS V14.00,2013-02-20 22:59:00,
2013-02-20 18:04:00,21.9,17.0,30.29,WSW,250,6.0,12.0,81,0.00,,---,0.00,VWS V14.00,2013-02-20 23:04:00,
2013-02-20 18:09:00,22.0,17.1,30.30,WSW,249,2.0,12.0,81,0.00,,---,0.00,VWS V14.00,2013-02-20 23:09:00,
2013-02-20 18:14:00,22.0,16.8,30.30,WSW,250,3.0,12.0,80,0.00,,---,0.00,VWS V14.00,2013-02-20 23:14:00,
2013-02-20 18:19:00,22.0,16.8,30.30,WSW,250,7.0,12.0,80,0.00,,---,0.00,VWS V14.00,2013-02-20 23:19:00,
2013-02-20 18:24:00,22.0,16.8,30.30,WSW,250,2.0,12.0,80,0.00,,---,0.00,VWS V14.00,2013-02-20 23:24:00,
2013-02-20 18:29:00,22.1,17.2,30.30,WSW,250,3.0,12.0,81,0.00,,---,0.00,VWS V14.00,2013-02-20 23:29:00,
2013-02-20 18:34:00,22.0,16.8,30.30,WSW,250,3.0,7.0,80,0.00,,---,0.00,VWS V14.00,2013-02-20 23:34:00,
2013-02-20 18:39:00,22.1,16.9,30.30,WSW,249,2.0,7.0,80,0.00,,---,0.00,VWS V14.00,2013-02-20 23:39:00,
2013-02-20 18:44:00,22.0,16.8,30.31,WSW,250,2.0,8.0,80,0.00,,---,0.00,VWS V14.00,2013-02-20 23:44:00,
2013-02-20 18:49:00,22.1,16.9,30.31,WSW,250,3.0,8.0,80,0.00,,---,0.00,VWS V14.00,2013-02-20 23:49:00,
2013-02-20 18:54:00,22.1,16.9,30.31,WSW,250,4.0,8.0,80,0.00,,---,0.00,VWS V14.00,2013-02-20 23:54:00,
2013-02-20 19:00:00,22.2,16.7,30.31,WSW,250,7.0,10.0,79,0.00,,---,0.00,VWS V14.00,2013-02-21 00:00:00,
2013-02-20 19:05:00,22.2,16.4,30.31,WSW,250,3.0,7.0,78,0.00,,---,0.00,VWS V14.00,2013-02-21 00:05:00,
2013-02-20 19:10:00,22.3,16.8,30.31,WSW,250,4.0,8.0,79,0.00,,---,0.00,VWS V14.00,2013-02-21 00:10:00,
2013-02-20 19:15:00,22.3,16.5,30.31,WSW,250,3.0,8.0,78,0.00,,---,0.00,VWS V14.00,2013-02-21 00:15:00,
2013-02-20 19:20:00,22.4,16.6,30.31,WSW,250,3.0,8.0,78,0.00,,---,0.00,VWS V14.00,2013-02-21 00:20:00,
2013-02-20 19:25:00,22.3,16.5,30.31,WSW,250,3.0,8.0,78,0.00,,---,0.00,VWS V14.00,2013-02-21 00:25:00,
2013-02-20 19:30:00,22.3,16.5,30.31,WSW,250,10.0,10.0,78,0.00,,---,0.00,VWS V14.00,2013-02-21 00:30:00,
2013-02-20 19:35:00,22.4,16.6,30.31,WSW,249,5.0,10.0,78,0.00,,---,0.00,VWS V14.00,2013-02-21 00:35:00,
2013-02-20 19:40:00,22.4,16.3,30.31,WSW,249,4.0,12.0,77,0.00,,---,0.00,VWS V14.00,2013-02-21 00:40:00,
2013-02-20 19:45:00,22.4,16.6,30.31,WSW,249,3.0,12.0,78,0.00,,---,0.00,VWS V14.00,2013-02-21 00:45:00,
2013-02-20 19:50:00,22.5,16.7,30.32,WSW,249,3.0,12.0,78,0.00,,---,0.00,VWS V14.00,2013-02-21 00:50:00,
2013-02-20 19:55:00,22.5,16.7,30.31,WSW,250,4.0,12.0,78,0.00,,---,0.00,VWS V14.00,2013-02-21 00:55:00,
2013-02-20 20:00:00,22.5,16.7,30.32,WSW,249,4.0,5.0,78,0.00,,---,0.00,VWS V14.00,2013-02-21 01:00:00,
2013-02-20 20:05:00,22.4,16.6,30.31,WSW,250,3.0,8.0,78,0.00,,---,0.00,VWS V14.00,2013-02-21 01:05:00,
2013-02-20 20:10:00,22.4,16.9,30.32,WSW,250,1.0,8.0,79,0.00,,---,0.00,VWS V14.00,2013-02-21 01:10:00,
2013-02-20 20:15:00,22.5,17.0,30.32,WSW,250,1.0,8.0,79,0.00,,---,0.00,VWS V14.00,2013-02-21 01:15:00,
2013-02-20 20:20:00,22.5,17.3,30.32,WSW,250,2.0,8.0,80,0.00,,---,0.00,VWS V14.00,2013-02-21 01:20:00,
2013-02-20 20:25:00,22.5,17.0,30.32,WSW,250,3.0,12.0,79,0.00,,---,0.00,VWS V14.00,2013-02-21 01:25:00,
2013-02-20 20:30:00,22.4,16.9,30.32,WSW,250,3.0,3.0,79,0.00,,---,0.00,VWS V14.00,2013-02-21 01:30:00,
2013-02-20 20:35:00,22.4,16.9,30.32,WSW,250,3.0,5.0,79,0.00,,---,0.00,VWS V14.00,2013-02-21 01:35:00,
2013-02-20 20:41:00,22.3,16.8,30.32,WSW,250,2.0,6.0,79,0.00,,---,0.00,VWS V14.00,2013-02-21 01:41:00,
2013-02-20 20:46:00,22.3,17.1,30.32,WSW,250,1.0,6.0,80,0.00,,---,0.00,VWS V14.00,2013-02-21 01:46:00,
2013-02-20 20:51:00,22.4,16.9,30.32,WSW,250,3.0,6.0,79,0.00,,---,0.00,VWS V14.00,2013-02-21 01:51:00,
2013-02-20 20:56:00,22.4,17.2,30.32,WSW,250,0.0,6.0,80,0.00,,---,0.00,VWS V14.00,2013-02-21 01:56:00,
2013-02-20 21:01:00,22.4,17.2,30.32,WSW,250,0.0,4.0,80,0.00,,---,0.00,VWS V14.00,2013-02-21 02:01:00,
2013-02-20 21:06:00,22.4,17.2,30.32,WSW,250,5.0,5.0,80,0.00,,---,0.00,VWS V14.00,2013-02-21 02:06:00,
2013-02-20 21:11:00,22.4,17.2,30.33,WSW,249,0.0,5.0,80,0.00,,---,0.00,VWS V14.00,2013-02-21 02:11:00,
2013-02-20 21:16:00,22.4,17.2,30.32,WSW,250,4.0,6.0,80,0.00,,---,0.00,VWS V14.00,2013-02-21 02:16:00,
2013-02-20 21:21:00,22.2,16.7,30.32,WSW,250,4.0,6.0,79,0.00,,---,0.00,VWS V14.00,2013-02-21 02:21:00,
2013-02-20 21:26:00,22.2,16.7,30.32,WSW,250,3.0,6.0,79,0.00,,---,0.00,VWS V14.00,2013-02-21 02:26:00,
2013-02-20 21:31:00,22.1,16.9,30.32,WSW,250,4.0,4.0,80,0.00,,---,0.00,VWS V14.00,2013-02-21 02:31:00,
2013-02-20 21:36:00,22.0,17.1,30.33,WSW,250,4.0,10.0,81,0.00,,---,0.00,VWS V14.00,2013-02-21 02:36:00,
2013-02-20 21:41:00,21.8,16.6,30.33,WSW,250,7.0,11.0,80,0.00,,---,0.00,VWS V14.00,2013-02-21 02:41:00,
2013-02-20 21:46:00,21.7,16.2,30.33,WSW,250,6.0,11.0,79,0.00,,---,0.00,VWS V14.00,2013-02-21 02:46:00,
2013-02-20 21:51:00,21.7,15.9,30.33,WSW,249,6.0,11.0,78,0.00,,---,0.00,VWS V14.00,2013-02-21 02:51:00,
2013-02-20 21:56:00,21.6,15.2,30.33,WSW,250,4.0,12.0,76,0.00,,---,0.00,VWS V14.00,2013-02-21 02:56:00,
2013-02-20 22:01:00,21.5,15.1,30.33,WSW,249,4.0,8.0,76,0.00,,---,0.00,VWS V14.00,2013-02-21 03:01:00,
2013-02-20 22:07:00,21.5,15.1,30.33,WSW,250,3.0,11.0,76,0.00,,---,0.00,VWS V14.00,2013-02-21 03:07:00,
2013-02-20 22:12:00,21.5,14.8,30.33,WSW,250,6.0,11.0,75,0.00,,---,0.00,VWS V14.00,2013-02-21 03:12:00,
2013-02-20 22:17:00,21.4,14.7,30.32,WSW,249,5.0,11.0,75,0.00,,---,0.00,VWS V14.00,2013-02-21 03:17:00,
2013-02-20 22:22:00,21.3,14.9,30.32,WSW,249,4.0,11.0,76,0.00,,---,0.00,VWS V14.00,2013-02-21 03:22:00,
2013-02-20 22:27:00,21.3,15.2,30.32,WSW,250,3.0,11.0,77,0.00,,---,0.00,VWS V14.00,2013-02-21 03:27:00,
2013-02-20 22:32:00,21.2,15.1,30.32,WSW,250,5.0,6.0,77,0.00,,---,0.00,VWS V14.00,2013-02-21 03:32:00,
2013-02-20 22:37:00,21.2,15.4,30.32,WSW,250,3.0,7.0,78,0.00,,---,0.00,VWS V14.00,2013-02-21 03:37:00,
2013-02-20 22:42:00,21.1,15.3,30.32,WSW,249,3.0,7.0,78,0.00,,---,0.00,VWS V14.00,2013-02-21 03:42:00,
2013-02-20 22:47:00,21.1,15.3,30.31,WSW,250,6.0,7.0,78,0.00,,---,0.00,VWS V14.00,2013-02-21 03:47:00,
2013-02-20 22:53:00,21.1,15.3,30.31,WSW,250,4.0,7.0,78,0.00,,---,0.00,VWS V14.00,2013-02-21 03:53:00,
2013-02-20 22:58:00,21.1,15.0,30.32,WSW,250,1.0,7.0,77,0.00,,---,0.00,VWS V14.00,2013-02-21 03:58:00,
2013-02-20 23:03:00,21.1,15.3,30.32,WSW,249,2.0,7.0,78,0.00,,---,0.00,VWS V14.00,2013-02-21 04:03:00,
2013-02-20 23:08:00,21.1,15.3,30.32,WSW,250,3.0,7.0,78,0.00,,---,0.00,VWS V14.00,2013-02-21 04:08:00,
2013-02-20 23:14:00,21.1,15.0,30.32,WSW,250,6.0,7.0,77,0.00,,---,0.00,VWS V14.00,2013-02-21 04:14:00,
2013-02-20 23:19:00,21.1,15.0,30.32,WSW,250,4.0,7.0,77,0.00,,---,0.00,VWS V14.00,2013-02-21 04:19:00,
2013-02-20 23:24:00,21.2,14.8,30.32,WSW,250,8.0,8.0,76,0.00,,---,0.00,VWS V14.00,2013-02-21 04:24:00,
2013-02-20 23:29:00,21.2,15.1,30.33,WSW,249,2.0,8.0,77,0.00,,---,0.00,VWS V14.00,2013-02-21 04:29:00,
2013-02-20 23:34:00,21.2,15.1,30.32,WSW,249,4.0,5.0,77,0.00,,---,0.00,VWS V14.00,2013-02-21 04:34:00,
2013-02-20 23:39:00,21.3,15.2,30.32,WSW,250,3.0,5.0,77,0.00,,---,0.00,VWS V14.00,2013-02-21 04:39:00,
2013-02-20 23:44:00,21.3,15.2,30.32,WSW,249,4.0,5.0,77,0.00,,---,0.00,VWS V14.00,2013-02-21 04:44:00,
2013-02-20 23:49:00,21.2,14.8,30.32,WSW,250,5.0,10.0,76,0.00,,---,0.00,VWS V14.00,2013-02-21 04:49:00,
2013-02-20 23:54:00,21.2,14.5,30.32,WSW,249,2.0,10.0,75,0.00,,---,0.00,VWS V14.00,2013-02-21 04:54:00,
2013-02-20 23:59:00,21.2,14.8,30.32,WSW,250,3.0,10.0,76,0.00,,---,0.00,VWS V14.00,2013-02-21 04:59:00,